Orbital Elements at Epoch 2459200.5 (2020-Dec-17.0) TDB
Reference: JPL 19 (heliocentric ecliptic J2000)
Element | Value | Uncertainty (1-sigma) | Units |
e | .1170741508453009 | 4.6412e-08 | |
a | 2.423304391067536 | 1.1646e-08 | au |
q | 2.139598087243615 | 1.1086e-07 | au |
i | 2.118754393740405 | 5.4851e-06 | deg |
node | 352.7847912742084 | 9.2935e-05 | deg |
peri | 203.3443967732052 | 9.4814e-05 | deg |
M | 161.0348593778754 | 1.8754e-05 | deg |
tp | 2458584.149463479541 (2019-Apr-10.64946348) | 7.0614e-05 | TDB |
period | 1377.876777764618 3.77 | 9.9332e-06 2.72e-08 | d yr |
n | .2612715489581309 | 1.8835e-09 | deg/d |
Q | 2.707010694891456 | 1.301e-08 | au |
|
| | Orbit Determination Parameters
Additional Information
|